SCP
0 0 0 0 0 0 0 0 0 0 0 0 0 0 0 0 0 0 0 0 0 0 0 0 0 0 0 0 0 0 0 0 0 0 0 0 0 0 0 0 0 0 0 0
0 0 0 0 0 0 0 0 0 0 0 0 0 0 0 -0 0 0 0 0 0 0 -0 -0 0 0 0 0 0 0 0 0 0 0 0 0 0 0 0 0 0 0 0 0
0 0 0 0 0 0 0 0 0 0 0 0 0 -0 0 -0 0 0 0 -0 -0 -0 -0 -0 -0 -0 -0 -0 -0 0 0 0 0 0 0 0 0 0 0 0 0 0 0 0
0 0 0 0 0 0 0 0 0 0 0 0 0 -0 -0 0 0 0 0 0 0 -0 -0 -0 -0 0 -0 -0 -0 -0 -0 -0 0 -0 0 0 0 0 0 0 0 0 0 0
0 0 0 0 0 0 0 0 0 0 0 0 0 0 -0 0 0 0 0 0 0 0 0 0 0 0 0 0 0 -0 -0 -0 -0 -0 -0 0 0 0 0 0 0 0 0 0
0 0 0 0 0 0 0 0 0 0 0 0 0 0 -0 0 0 0 0 0 0 0 0 0 0 0 0 0 0 0 0 0 -0 -0 -0 -0 0 0 0 0 0 0 0 0
0 0 0 0 0 0 0 0 0 0 0 0 0 0 0 0 0 0 0 0 0 0 0 0 0 0 0 0 0 0 0 0 0 0 0 0 0 0 0 0 0 0 0 0
0 0 0 0 0 0 0 0 0 0 0 0 0 0 0 -0 0 0 0 0 0 0 0 0 0 0 0 0 0 0 0 0 0 0 0 0 0 0 0 0 0 0 0 0
0 0 0 0 0 0 0 0 0 0 0 0 0 0 0 0 0 0 0 0 0 0 0 0 0 0 0 0 0 0 0 0 0 0 0 0 0 0 0 0 0 0 0 0
0 0 0 0 0 0 0 0 0 0 0 0 0 0 0 -0 0 0 0 0 0 0 0 0 0 0 0 0 0 0 0 0 0 0 0 0 0 0 0 0 0 0 0 0
0 -0 0 0 0 0 0 0 0 0 0 0 0 0 0 0 0 0 0 0 0 0 0 0 0 0 0 0 0 0 0 0 0 0 0 0 0 0 0 0 0 0 0 0
0 0 -0 0 0 0 0 0 0 0 0 0 0 0 0 0 0 0 0 0 0 0 0 0 0 0 0 0 0 0 0 0 0 0 0 0 0 0 0 0 0 0 0 0
0 0 -0 -0 0 0 0 0 0 0 0 0 0 0 0 0 0 0 0 0 0 0 0 0 0 0 0 0 0 0 0 0 0 0 0 0 0 0 0 0 0 0 0 0
0 0 0 0 0 0 0 0 0 0 0 0 0 0 0 0 0 0 0 0 0 0 0 0 0 0 0 0 0 0 0 0 0 0 0 0 0 0 0 0 0 0 0 0
0 0 -0 -0 -0 0 0 0 0 0 0 0 0 0 0 0 0 0 0 0 0 0 0 0 0 0 0 0 0 0 0 0 0 0 0 0 0 0 0 0 0 0 0 0
0 0 0 -0 -0 -0 0 0 0 0 0 0 0 0 0 0 0 0 0 0 0 0 0 0 0 0 0 0 0 0 0 0 0 0 0 0 0 0 0 0 0 0 0 0
0 0 0 -0 0 0 -0 -0 0 0 0 0 0 0 0 0 0 0 0 0 0 0 0 0 0 0 0 0 0 0 0 0 0 0 0 0 0 0 0 0 0 0 0 0
0 0 0 -0 0 0 -0 -0 0 0 0 0 0 0 0 0 0 0 0 0 0 0 0 0 0 0 0 0 0 0 0 0 0 0 0 0 0 0 0 0 0 0 0 0
0 0 0 0 0 0 -0 0 0 0 0 0 0 0 0 0 0 0 0 0 0 0 0 0 0 0 0 0 0 0 0 0 0 0 0 0 0 0 0 0 0 0 0 0
0 0 0 0 0 -0 0 0 0 0 0 0 0 0 0 0 0 0 0 0 0 0 0 0 0 0 0 0 0 0 0 0 0 0 0 0 0 0 0 0 0 0 0 0
-0 0 0 0 0 0 0 0 0 0 0 0 0 0 0 0 0 -0 0 0 0 0 0 0 0 0 0 0 0 0 0 0 0 0 0 0 0 0 0 0 0 0 0 0
0 0 0 0 0 0 0 0 0 0 0 0 0 0 0 0 0 0 0 0 0 0 0 0 0 0 0 0 0 0 0 0 0 0 0 0 0 0 0 0 0 0 0 0
0 0 0 0 0 0 0 0 0 0 0 0 0 0 0 0 0 0 0 0 0 0 0 0 0 0 0 0 0 0 0 0 0 0 0 0 0 0 0 0 0 0 0 0
0 0 0 0 0 0 0 0 0 0 0 0 0 0 0 0 0 0 0 0 0 0 0 0 0 0 0 0 0 0 0 0 0 0 0 0 0 0 0 0 0 0 0 0
0 0 0 0 0 0 0 0 0 0 0 0 0 0 0 0 0 0 0 0 0 0 0 0 0 0 0 0 0 0 0 0 0 0 0 0 0 0 0 0 0 0 0 0
0 0 0 0 0 0 0 0 0 0 0 0 0 0 0 0 0 0 0 0 0 0 0 0 0 0 0 0 0 0 0 0 0 0 0 0 0 0 0 0 0 0 0 0
Wind_Speed_500mb
34 23 37 61 38 10 15 10 29 21 9 13 29 30 20 33 22 48 54 57 61 64 57 56 53 53 56 61 64 64 64 63 61 61 60 60 60 54 52 52 50 49 48 46
14 35 51 37 27 33 24 25 26 11 8 13 10 30 31 17 29 48 60 67 68 69 66 63 58 58 58 56 59 67 69 69 69 67 65 65 61 62 58 54 55 56 56 55
40 51 44 39 39 33 36 35 17 10 7 5 5 20 16 15 50 60 61 57 70 76 75 69 67 67 62 60 61 62 66 71 72 72 69 68 70 70 68 68 65 63 61 60
39 61 38 32 48 34 47 19 12 12 11 19 15 28 20 20 25 20 61 76 78 75 81 82 80 79 80 75 70 66 63 65 69 72 76 74 74 73 68 65 63 66 65 65
12 22 47 46 49 49 32 13 17 13 13 3 8 7 14 16 21 24 53 76 89 93 84 84 81 71 69 67 72 70 69 69 67 69 71 72 72 71 68 67 63 62 63 65
21 33 30 51 31 44 12 13 8 5 3 21 36 18 22 20 23 27 48 61 91 93 99 99 93 81 77 68 66 68 71 72 73 72 68 72 70 68 68 65 64 64 61 62
41 37 33 31 28 36 23 23 11 20 15 29 19 14 53 8 17 21 39 67 91 85 94 100 96 85 81 78 79 72 71 70 71 77 74 72 66 64 64 64 63 66 63 61
32 34 36 42 40 41 61 49 12 20 19 28 10 23 25 22 52 46 64 70 57 67 74 69 67 66 74 84 80 77 73 63 64 70 74 73 71 72 71 70 72 70 68 64
10 14 22 20 17 44 41 38 29 11 6 5 10 21 17 17 17 43 55 58 67 70 60 59 54 61 58 67 76 69 70 66 62 62 65 72 72 72 73 71 72 72 71 69
18 17 21 48 26 35 29 46 28 11 17 12 12 17 32 25 27 21 20 52 75 64 61 59 61 54 43 50 68 64 65 63 58 54 56 59 60 62 63 62 63 62 62 62
20 18 13 24 34 35 29 28 18 15 12 11 20 26 18 30 32 35 39 68 89 84 68 59 58 51 42 44 52 56 58 55 52 49 46 47 49 50 50 52 54 56 57 58
33 10 36 50 31 34 49 40 46 27 31 28 4 31 8 21 35 46 57 88 95 93 76 52 53 54 50 45 44 44 45 45 39 35 37 37 36 36 37 39 41 44 47 49
27 16 27 14 30 8 54 45 43 35 6 44 35 41 6 8 12 39 39 55 58 70 59 54 56 55 50 45 43 42 39 38 38 35 31 29 27 27 29 32 35 40 44 46
40 21 23 34 24 14 36 55 61 55 37 38 42 62 46 10 15 19 50 71 60 46 66 61 62 59 52 47 45 44 44 42 38 34 30 30 29 29 30 32 35 40 44 46
20 12 37 47 53 43 31 57 50 58 63 52 60 66 72 37 22 28 58 62 45 56 79 82 74 63 58 57 55 50 45 43 39 34 32 28 28 30 34 37 38 40 42 40
6 20 17 39 51 62 57 41 55 62 51 55 57 57 55 52 51 39 53 42 57 62 79 82 72 70 73 71 61 53 47 43 37 33 33 33 34 36 39 42 43 43 43 40
11 9 14 45 47 44 42 57 48 47 59 56 57 76 74 18 29 53 55 55 64 74 73 83 86 86 85 76 63 56 49 43 40 38 38 37 39 41 43 44 44 43 41 39
23 25 7 29 37 47 34 27 50 54 54 58 56 52 54 48 50 61 78 87 89 77 79 85 84 88 84 73 62 57 50 44 42 42 39 42 44 44 43 44 42 38 37 37
34 30 22 25 37 29 17 18 47 44 73 76 71 76 62 22 27 43 94 100 89 88 85 86 87 86 78 78 64 57 50 47 47 42 40 41 40 40 40 37 36 36 38 42
44 43 29 29 37 29 21 42 60 32 50 55 60 74 64 26 17 45 94 94 81 80 70 82 87 81 83 78 65 57 52 49 43 35 35 35 35 34 35 35 37 34 33 35
11 21 43 42 39 31 28 16 48 45 26 58 88 96 79 39 71 136 50 90 88 76 81 93 84 88 92 80 66 60 53 45 40 35 33 31 30 30 32 27 27 25 27 29
36 22 24 35 33 41 51 24 38 50 92 29 78 90 60 99 112 117 95 95 89 96 99 94 90 93 86 77 70 61 51 45 43 35 34 32 30 29 27 22 23 25 25 25
42 47 34 28 34 10 31 50 71 51 62 74 40 87 84 101 108 127 92 96 98 90 98 99 88 90 85 80 72 66 54 51 46 41 38 35 33 24 21 20 22 19 21 21
29 42 40 11 52 20 41 54 70 60 49 83 106 88 84 88 104 95 87 91 100 99 100 99 90 92 90 81 72 62 55 55 52 45 40 35 28 24 16 14 15 17 17 15
10 22 47 45 18 8 37 59 48 70 53 50 68 68 60 63 84 91 97 104 104 99 87 88 98 98 93 83 74 66 66 62 53 47 41 35 26 16 9 12 13 13 11 8
8 5 18 24 12 9 9 54 58 54 59 41 40 41 44 48 58 73 83 92 98 100 88 89 95 96 89 80 73 72 70 61 54 48 42 33 26 20 19 19 15 12 11 10
Wind_Direction_500mb
193 202 209 209 212 203 175 197 232 235 178 162 222 250 261 254 243 243 237 235 233 232 235 234 233 235 235 234 234 235 235 236 236 236 237 237 239 241 243 243 245 246 247 249
195 227 216 215 213 215 230 214 225 271 144 195 265 254 252 214 244 242 243 241 239 239 238 238 234 234 235 238 237 237 236 237 239 240 241 244 248 250 251 254 253 252 252 253
214 220 210 212 214 211 216 226 212 235 92 307 332 263 239 243 243 250 250 252 248 243 240 239 237 236 236 238 240 238 238 239 240 242 244 245 248 252 252 251 253 254 255 255
220 228 197 203 214 202 219 190 171 169 169 232 188 260 239 231 227 229 246 244 244 243 244 247 247 244 241 246 242 242 242 242 243 241 243 245 248 252 259 261 263 263 261 262
233 215 208 209 208 199 235 162 187 185 207 237 215 272 260 181 232 231 241 240 243 243 243 243 244 243 241 246 238 241 242 243 243 243 241 246 248 254 260 264 267 267 266 264
264 299 258 213 211 207 132 122 85 46 158 240 230 214 229 213 206 230 239 242 247 244 247 247 248 248 247 245 238 238 241 242 242 243 243 245 250 253 258 263 266 269 272 271
257 255 254 198 193 190 191 163 196 216 226 239 187 195 237 226 207 214 230 238 245 250 250 250 248 246 241 238 238 238 243 245 245 243 244 246 251 254 258 263 267 268 273 275
232 249 221 193 203 192 199 190 186 188 197 225 155 225 243 218 220 236 241 245 248 250 251 252 250 243 242 239 235 236 240 243 244 244 244 247 250 253 258 264 268 272 276 279
218 242 184 219 179 177 192 206 198 101 14 61 194 275 282 251 242 221 233 241 249 247 249 247 243 242 244 230 226 233 236 243 243 248 250 251 254 256 260 264 268 272 275 278
225 281 232 205 218 214 182 201 193 194 175 214 227 245 231 195 215 234 246 241 239 236 240 240 231 230 231 221 220 229 234 240 244 246 248 249 251 254 259 264 266 270 275 279
219 210 273 228 201 195 196 194 217 211 163 204 250 247 198 201 209 217 226 231 233 233 234 236 225 216 214 214 218 225 230 233 235 237 236 238 242 247 252 259 266 271 273 274
200 225 244 253 250 211 215 205 200 208 205 219 250 251 192 215 207 208 215 228 234 238 230 223 206 200 202 202 206 211 217 224 225 224 226 231 236 243 251 259 266 270 274 277
180 211 241 271 211 214 211 218 199 211 281 224 228 253 347 239 238 231 243 238 238 238 214 204 196 195 200 206 215 212 207 202 201 202 206 216 228 241 254 263 269 272 274 274
169 216 228 231 275 246 203 212 214 212 224 235 224 248 239 252 236 247 240 243 247 235 208 202 203 202 205 208 200 194 190 190 193 199 211 224 232 242 251 260 266 269 270 272
207 248 220 233 251 267 264 229 213 216 217 217 227 229 238 229 240 250 259 252 242 227 212 207 206 203 203 198 193 193 194 199 205 215 222 227 238 251 260 265 269 273 274 276
256 260 276 237 231 245 256 271 218 225 228 233 237 245 250 235 226 243 255 261 241 233 220 213 206 205 205 198 196 197 200 204 208 216 226 238 249 258 265 269 272 276 280 283
197 231 237 269 253 236 245 234 250 220 222 222 225 235 246 222 214 225 237 243 244 233 223 212 209 209 204 198 198 201 203 206 216 226 233 243 253 260 264 268 271 271 275 280
256 263 208 266 282 230 235 193 215 246 234 225 237 250 240 235 235 235 237 244 247 233 224 216 213 210 203 198 200 201 205 214 223 229 239 248 253 260 263 262 262 262 267 274
227 242 256 256 265 288 244 181 196 205 232 223 225 241 242 229 197 237 235 233 238 234 224 215 223 211 204 202 201 203 210 220 225 232 246 256 261 261 260 259 261 265 269 272
216 218 223 236 259 243 225 227 210 184 233 228 215 233 230 157 213 237 223 226 234 238 226 218 215 207 202 203 205 206 214 220 230 245 250 252 253 251 249 251 256 263 270 275
199 217 221 225 242 254 262 198 160 202 218 227 212 224 223 209 222 239 225 232 236 233 224 222 217 207 206 205 206 213 216 226 232 238 242 239 237 240 243 246 258 267 273 273
230 218 216 225 231 253 232 166 180 212 220 225 210 224 208 220 228 239 230 231 230 231 226 222 214 208 203 204 209 213 219 229 229 229 222 224 231 236 242 250 262 267 268 270
234 224 225 206 222 227 199 207 212 232 221 225 217 213 211 220 228 236 234 233 233 230 222 218 211 203 204 205 211 212 218 223 221 213 216 222 227 227 241 256 265 271 277 280
241 227 224 185 238 224 211 232 215 219 230 220 227 232 218 217 231 235 232 231 227 223 220 213 208 203 203 207 208 213 218 214 207 206 212 217 218 224 235 272 290 297 295 294
207 183 218 235 242 313 221 214 220 221 233 229 227 235 236 230 230 233 232 230 222 219 212 211 210 208 206 205 208 213 210 204 202 205 207 209 208 209 235 256 261 268 268 263
25 5 226 237 5 286 249 217 217 217 217 219 220 222 232 233 235 233 233 234 222 218 213 209 209 203 200 205 208 204 200 199 203 204 203 201 196 205 222 231 242 261 260 242
Wind_Speed_850mb
34 23 37 61 38 10 15 10 29 21 9 13 29 30 20 33 22 48 54 57 61 64 57 56 53 53 56 61 64 64 64 63 61 61 60 60 60 54 52 52 50 49 48 46
14 35 51 37 27 33 24 25 26 11 8 13 10 30 31 17 29 48 60 67 68 69 66 63 58 58 58 56 59 67 69 69 69 67 65 65 61 62 58 54 55 56 56 55
40 51 44 39 39 33 36 35 17 10 7 5 5 20 16 15 50 60 61 57 70 76 75 69 67 67 62 60 61 62 66 71 72 72 69 68 70 70 68 68 65 63 61 60
39 61 38 32 48 34 47 19 12 12 11 19 15 28 20 20 25 20 61 76 78 75 81 82 80 79 80 75 70 66 63 65 69 72 76 74 74 73 68 65 63 66 65 65
12 22 47 46 49 49 32 13 17 13 13 3 8 7 14 16 21 24 53 76 89 93 84 84 81 71 69 67 72 70 69 69 67 69 71 72 72 71 68 67 63 62 63 65
21 33 30 51 31 44 12 13 8 5 3 21 36 18 22 20 23 27 48 61 91 93 99 99 93 81 77 68 66 68 71 72 73 72 68 72 70 68 68 65 64 64 61 62
41 37 33 31 28 36 23 23 11 20 15 29 19 14 53 8 17 21 39 67 91 85 94 100 96 85 81 78 79 72 71 70 71 77 74 72 66 64 64 64 63 66 63 61
32 34 36 42 40 41 61 49 12 20 19 28 10 23 25 22 52 46 64 70 57 67 74 69 67 66 74 84 80 77 73 63 64 70 74 73 71 72 71 70 72 70 68 64
10 14 22 20 17 44 41 38 29 11 6 5 10 21 17 17 17 43 55 58 67 70 60 59 54 61 58 67 76 69 70 66 62 62 65 72 72 72 73 71 72 72 71 69
18 17 21 48 26 35 29 46 28 11 17 12 12 17 32 25 27 21 20 52 75 64 61 59 61 54 43 50 68 64 65 63 58 54 56 59 60 62 63 62 63 62 62 62
20 18 13 24 34 35 29 28 18 15 12 11 20 26 18 30 32 35 39 68 89 84 68 59 58 51 42 44 52 56 58 55 52 49 46 47 49 50 50 52 54 56 57 58
33 10 36 50 31 34 49 40 46 27 31 28 4 31 8 21 35 46 57 88 95 93 76 52 53 54 50 45 44 44 45 45 39 35 37 37 36 36 37 39 41 44 47 49
27 16 27 14 30 8 54 45 43 35 6 44 35 41 6 8 12 39 39 55 58 70 59 54 56 55 50 45 43 42 39 38 38 35 31 29 27 27 29 32 35 40 44 46
40 21 23 34 24 14 36 55 61 55 37 38 42 62 46 10 15 19 50 71 60 46 66 61 62 59 52 47 45 44 44 42 38 34 30 30 29 29 30 32 35 40 44 46
20 12 37 47 53 43 31 57 50 58 63 52 60 66 72 37 22 28 58 62 45 56 79 82 74 63 58 57 55 50 45 43 39 34 32 28 28 30 34 37 38 40 42 40
6 20 17 39 51 62 57 41 55 62 51 55 57 57 55 52 51 39 53 42 57 62 79 82 72 70 73 71 61 53 47 43 37 33 33 33 34 36 39 42 43 43 43 40
11 9 14 45 47 44 42 57 48 47 59 56 57 76 74 18 29 53 55 55 64 74 73 83 86 86 85 76 63 56 49 43 40 38 38 37 39 41 43 44 44 43 41 39
23 25 7 29 37 47 34 27 50 54 54 58 56 52 54 48 50 61 78 87 89 77 79 85 84 88 84 73 62 57 50 44 42 42 39 42 44 44 43 44 42 38 37 37
34 30 22 25 37 29 17 18 47 44 73 76 71 76 62 22 27 43 94 100 89 88 85 86 87 86 78 78 64 57 50 47 47 42 40 41 40 40 40 37 36 36 38 42
44 43 29 29 37 29 21 42 60 32 50 55 60 74 64 26 17 45 94 94 81 80 70 82 87 81 83 78 65 57 52 49 43 35 35 35 35 34 35 35 37 34 33 35
11 21 43 42 39 31 28 16 48 45 26 58 88 96 79 39 71 136 50 90 88 76 81 93 84 88 92 80 66 60 53 45 40 35 33 31 30 30 32 27 27 25 27 29
36 22 24 35 33 41 51 24 38 50 92 29 78 90 60 99 112 117 95 95 89 96 99 94 90 93 86 77 70 61 51 45 43 35 34 32 30 29 27 22 23 25 25 25
42 47 34 28 34 10 31 50 71 51 62 74 40 87 84 101 108 127 92 96 98 90 98 99 88 90 85 80 72 66 54 51 46 41 38 35 33 24 21 20 22 19 21 21
29 42 40 11 52 20 41 54 70 60 49 83 106 88 84 88 104 95 87 91 100 99 100 99 90 92 90 81 72 62 55 55 52 45 40 35 28 24 16 14 15 17 17 15
10 22 47 45 18 8 37 59 48 70 53 50 68 68 60 63 84 91 97 104 104 99 87 88 98 98 93 83 74 66 66 62 53 47 41 35 26 16 9 12 13 13 11 8
8 5 18 24 12 9 9 54 58 54 59 41 40 41 44 48 58 73 83 92 98 100 88 89 95 96 89 80 73 72 70 61 54 48 42 33 26 20 19 19 15 12 11 10
Wind_Direction_850mb
193 202 209 209 212 203 175 197 232 235 178 162 222 250 261 254 243 243 237 235 233 232 235 234 233 235 235 234 234 235 235 236 236 236 237 237 239 241 243 243 245 246 247 249
195 227 216 215 213 215 230 214 225 271 144 195 265 254 252 214 244 242 243 241 239 239 238 238 234 234 235 238 237 237 236 237 239 240 241 244 248 250 251 254 253 252 252 253
214 220 210 212 214 211 216 226 212 235 92 307 332 263 239 243 243 250 250 252 248 243 240 239 237 236 236 238 240 238 238 239 240 242 244 245 248 252 252 251 253 254 255 255
220 228 197 203 214 202 219 190 171 169 169 232 188 260 239 231 227 229 246 244 244 243 244 247 247 244 241 246 242 242 242 242 243 241 243 245 248 252 259 261 263 263 261 262
233 215 208 209 208 199 235 162 187 185 207 237 215 272 260 181 232 231 241 240 243 243 243 243 244 243 241 246 238 241 242 243 243 243 241 246 248 254 260 264 267 267 266 264
264 299 258 213 211 207 132 122 85 46 158 240 230 214 229 213 206 230 239 242 247 244 247 247 248 248 247 245 238 238 241 242 242 243 243 245 250 253 258 263 266 269 272 271
257 255 254 198 193 190 191 163 196 216 226 239 187 195 237 226 207 214 230 238 245 250 250 250 248 246 241 238 238 238 243 245 245 243 244 246 251 254 258 263 267 268 273 275
232 249 221 193 203 192 199 190 186 188 197 225 155 225 243 218 220 236 241 245 248 250 251 252 250 243 242 239 235 236 240 243 244 244 244 247 250 253 258 264 268 272 276 279
218 242 184 219 179 177 192 206 198 101 14 61 194 275 282 251 242 221 233 241 249 247 249 247 243 242 244 230 226 233 236 243 243 248 250 251 254 256 260 264 268 272 275 278
225 281 232 205 218 214 182 201 193 194 175 214 227 245 231 195 215 234 246 241 239 236 240 240 231 230 231 221 220 229 234 240 244 246 248 249 251 254 259 264 266 270 275 279
219 210 273 228 201 195 196 194 217 211 163 204 250 247 198 201 209 217 226 231 233 233 234 236 225 216 214 214 218 225 230 233 235 237 236 238 242 247 252 259 266 271 273 274
200 225 244 253 250 211 215 205 200 208 205 219 250 251 192 215 207 208 215 228 234 238 230 223 206 200 202 202 206 211 217 224 225 224 226 231 236 243 251 259 266 270 274 277
180 211 241 271 211 214 211 218 199 211 281 224 228 253 347 239 238 231 243 238 238 238 214 204 196 195 200 206 215 212 207 202 201 202 206 216 228 241 254 263 269 272 274 274
169 216 228 231 275 246 203 212 214 212 224 235 224 248 239 252 236 247 240 243 247 235 208 202 203 202 205 208 200 194 190 190 193 199 211 224 232 242 251 260 266 269 270 272
207 248 220 233 251 267 264 229 213 216 217 217 227 229 238 229 240 250 259 252 242 227 212 207 206 203 203 198 193 193 194 199 205 215 222 227 238 251 260 265 269 273 274 276
256 260 276 237 231 245 256 271 218 225 228 233 237 245 250 235 226 243 255 261 241 233 220 213 206 205 205 198 196 197 200 204 208 216 226 238 249 258 265 269 272 276 280 283
197 231 237 269 253 236 245 234 250 220 222 222 225 235 246 222 214 225 237 243 244 233 223 212 209 209 204 198 198 201 203 206 216 226 233 243 253 260 264 268 271 271 275 280
256 263 208 266 282 230 235 193 215 246 234 225 237 250 240 235 235 235 237 244 247 233 224 216 213 210 203 198 200 201 205 214 223 229 239 248 253 260 263 262 262 262 267 274
227 242 256 256 265 288 244 181 196 205 232 223 225 241 242 229 197 237 235 233 238 234 224 215 223 211 204 202 201 203 210 220 225 232 246 256 261 261 260 259 261 265 269 272
216 218 223 236 259 243 225 227 210 184 233 228 215 233 230 157 213 237 223 226 234 238 226 218 215 207 202 203 205 206 214 220 230 245 250 252 253 251 249 251 256 263 270 275
199 217 221 225 242 254 262 198 160 202 218 227 212 224 223 209 222 239 225 232 236 233 224 222 217 207 206 205 206 213 216 226 232 238 242 239 237 240 243 246 258 267 273 273
230 218 216 225 231 253 232 166 180 212 220 225 210 224 208 220 228 239 230 231 230 231 226 222 214 208 203 204 209 213 219 229 229 229 222 224 231 236 242 250 262 267 268 270
234 224 225 206 222 227 199 207 212 232 221 225 217 213 211 220 228 236 234 233 233 230 222 218 211 203 204 205 211 212 218 223 221 213 216 222 227 227 241 256 265 271 277 280
241 227 224 185 238 224 211 232 215 219 230 220 227 232 218 217 231 235 232 231 227 223 220 213 208 203 203 207 208 213 218 214 207 206 212 217 218 224 235 272 290 297 295 294
207 183 218 235 242 313 221 214 220 221 233 229 227 235 236 230 230 233 232 230 222 219 212 211 210 208 206 205 208 213 210 204 202 205 207 209 208 209 235 256 261 268 268 263
25 5 226 237 5 286 249 217 217 217 217 219 220 222 232 233 235 233 233 234 222 218 213 209 209 203 200 205 208 204 200 199 203 204 203 201 196 205 222 231 242 261 260 242